Flag Weather past 2 weeks in Copenhagen, Denmark

Now
41 °F

Passing clouds.


Feels Like: 32 °F
Forecast: 36 / 39 °F
Wind: 17 mph from East

Location: Koebenhavn-Kastrup Airport

Current Time: Nov 28, 2014 at 7:06:16 AM

Latest Report: Nov 28, 2014 at 6:20 AM


Visibility: N/A

Pressure: 30.21 "Hg

Humidity: 81%

Dew point: 36 °F

Location of CopenhagenLocation

Historic Weather in Copenhagen — Graph

°F

Copenhagen temperature yesterday

Maximum temperature yesterday: 46 °F (at 11:50 AM)
Minimum temperature yesterday: 41 °F (at 4:50 AM)
Average temperature yesterday: 43 °F

Past Weeks' High & Low Weather Summary

 TemperatureHumidityPressure
High52 °F (Nov 14, 8:50 PM)100% (Nov 14, 7:50 AM)30.39 "Hg (Nov 14, 7:50 AM)
Low37 °F (Nov 25, 5:50 AM)62% (Nov 27, 11:50 AM)29.77 "Hg (Nov 16, 12:20 PM)
Average45 °F88%30.12 "Hg
* Reported Nov 13 5:20 AM — Nov 28 5:50 AM, Copenhagen, Weather by CustomWeather, © 2014

Note: Actual official high and low records may vary slightly from our data, if they occured in-between our weather recording intervals... More about our weather records

Advertising

Copenhagen weather history for previous 24 hours

 ConditionsComfort  
Time TempWeatherWind HumidityBarometerVisibility
5:50 AM
Nov 28
41 °FPassing clouds.15 mph81%30.18 "HgN/A
5:20 AM41 °FPassing clouds.17 mph81%30.18 "HgN/A
4:20 AM41 °FPassing clouds.12 mph87%30.18 "HgN/A
3:51 AM43 °FPassing clouds.12 mph81%30.18 "HgN/A
3:20 AM43 °FPassing clouds.12 mph76%30.18 "HgN/A
2:50 AM43 °FPassing clouds.13 mph76%30.18 "HgN/A
2:20 AM43 °FPassing clouds.12 mph81%30.15 "HgN/A
1:50 AM43 °FPassing clouds.10 mph81%30.15 "HgN/A
1:20 AM43 °FPassing clouds.13 mph81%30.15 "HgN/A
12:50 AM41 °FClear.12 mph87%30.15 "Hg10 mi
12:20 AM41 °FClear.14 mph87%30.15 "Hg10 mi
11:50 PM
Nov 27
41 °FClear.14 mph87%30.15 "Hg10 mi
11:20 PM41 °FClear.13 mph87%30.15 "Hg10 mi
10:50 PM43 °FClear.15 mph81%30.15 "Hg10 mi
10:20 PM41 °FClear.14 mph87%30.15 "Hg10 mi
9:50 PM41 °FClear.14 mph87%30.15 "Hg10 mi
9:20 PM41 °FClear.14 mph87%30.15 "Hg10 mi
8:50 PM41 °FClear.16 mph81%30.15 "Hg10 mi
8:20 PM41 °FClear.15 mph87%30.12 "Hg10 mi
7:50 PM41 °FPassing clouds.14 mph87%30.12 "HgN/A
7:20 PM41 °FClear.14 mph87%30.12 "Hg10 mi
6:50 PM41 °FClear.14 mph81%30.12 "Hg10 mi
6:20 PM41 °FClear.15 mph87%30.12 "Hg10 mi
5:50 PM41 °FClear.15 mph87%30.12 "Hg10 mi
5:20 PM43 °FClear.15 mph76%30.12 "Hg10 mi
4:50 PM41 °FPassing clouds.16 mph81%30.12 "HgN/A
4:20 PM43 °FPassing clouds.15 mph76%30.12 "HgN/A
3:50 PM43 °FPassing clouds.17 mph81%30.09 "HgN/A
3:20 PM43 °FScattered clouds.20 mph76%30.09 "HgN/A
2:50 PM45 °FScattered clouds.20 mph71%30.09 "HgN/A
2:20 PM45 °FScattered clouds.17 mph66%30.09 "HgN/A
1:50 PM45 °FScattered clouds.18 mph66%30.09 "HgN/A
1:20 PM45 °FScattered clouds.17 mph66%30.12 "HgN/A
12:50 PM46 °FScattered clouds.17 mph62%30.12 "HgN/A
12:20 PM46 °FScattered clouds.17 mph62%30.12 "HgN/A
11:50 AM46 °FScattered clouds.18 mph62%30.12 "HgN/A
10:50 AM45 °FPartly sunny.12 mph76%30.12 "HgN/A
10:20 AM45 °FPartly sunny.14 mph76%30.12 "HgN/A
9:20 AM43 °FPartly sunny.14 mph81%30.12 "HgN/A
8:50 AM43 °FPartly sunny.13 mph81%30.12 "HgN/A
8:20 AM43 °FPartly sunny.14 mph81%30.12 "HgN/A
7:50 AM43 °FPassing clouds.13 mph81%30.12 "HgN/A
7:20 AM43 °FPassing clouds.13 mph76%30.12 "HgN/A
Weather by CustomWeather, © 2014

See weather overviewHow to use our weather pages